Theta_e
323 326 336 339 340 341 341 341 340 339 339 338 336 335 333 331 329 328 327 327 328 329 329 330 330 329 328 327 327 327 327 326 326 325 323 323 327 334 335 332 331 328 332
322 325 331 333 334 334 334 334 334 334 335 334 332 330 329 328 327 326 325 325 325 327 328 328 328 328 327 326 326 325 325 324 324 323 321 320 317 321 336 332 330 328 329
320 323 325 329 330 330 329 328 328 328 328 327 327 326 326 325 325 325 324 323 323 325 326 327 327 326 325 325 324 324 324 323 322 321 318 308 308 322 334 329 329 329 328
319 322 324 328 328 328 327 327 326 325 325 325 325 324 324 323 323 322 322 321 322 323 324 325 325 324 323 323 323 323 322 322 320 319 306 304 304 316 324 325 326 327 328
317 320 322 325 325 325 324 325 324 324 324 323 323 322 322 321 320 320 320 319 320 321 322 323 322 322 321 321 321 321 321 320 318 311 303 301 304 309 318 321 322 324 325
316 318 318 320 322 322 321 322 323 322 322 321 321 321 321 319 319 319 319 319 320 320 321 321 321 320 320 319 319 320 320 319 317 303 301 301 302 310 318 320 321 322 323
316 315 313 319 320 320 319 318 319 319 319 319 319 320 319 319 318 318 318 317 317 318 319 319 319 319 319 319 319 319 318 317 309 303 301 300 299 313 317 318 319 320 322
310 308 309 312 314 316 316 316 316 316 316 317 318 316 317 316 317 316 315 316 316 317 317 317 317 317 317 317 317 316 315 314 309 302 302 301 306 314 317 318 319 319 321
306 304 303 303 305 308 314 315 314 315 315 315 311 310 309 309 309 308 308 310 311 310 311 313 314 313 313 313 314 314 313 312 307 303 302 300 307 314 317 318 319 319 320
301 300 299 299 299 299 303 310 313 313 310 306 304 304 303 301 302 301 302 304 306 306 307 307 308 307 306 305 304 305 306 308 301 300 299 298 312 315 317 319 319 318 319
299 296 295 296 296 296 300 301 303 306 304 301 299 300 297 293 293 292 297 300 302 302 303 303 303 302 300 298 300 301 301 296 297 298 299 306 312 314 316 317 318 319 319
295 293 292 293 293 294 298 295 294 296 295 293 292 291 292 290 291 292 292 296 297 298 298 299 299 297 293 289 290 294 291 292 294 297 299 305 309 314 315 315 316 318 318
294 292 292 291 291 291 291 291 290 291 289 291 290 289 289 289 287 287 286 286 287 291 288 289 288 288 287 288 288 289 290 289 291 293 296 301 304 309 313 315 315 316 317
292 290 290 289 289 289 289 289 289 289 289 289 288 289 287 286 285 285 285 285 285 287 286 286 286 287 286 287 288 288 288 289 289 290 291 297 300 304 307 310 313 315 316
291 289 288 288 288 288 288 287 288 287 287 288 288 288 287 285 285 285 285 285 284 285 285 285 285 286 285 286 287 287 287 287 287 288 289 295 297 300 303 307 310 312 315
290 289 288 288 288 288 287 286 287 287 287 287 287 287 288 286 285 285 284 284 284 284 285 285 285 284 285 285 286 286 285 285 286 286 287 287 294 297 299 303 306 308 310
289 289 288 287 288 286 286 286 286 287 287 286 286 287 287 287 285 285 284 284 283 284 284 284 284 284 283 284 283 284 284 285 285 286 286 286 287 292 294 297 300 302 305
288 287 288 289 287 286 285 285 286 286 285 285 285 286 286 287 286 284 283 283 284 284 284 283 283 282 282 282 281 282 283 284 284 284 285 285 286 287 290 294 296 298 302
286 286 286 286 285 285 285 285 284 284 284 284 284 284 285 286 286 284 283 283 284 283 283 282 283 281 280 280 281 282 282 282 282 284 283 284 284 285 286 289 291 293 295
285 285 285 285 285 284 284 283 283 283 283 283 284 284 285 285 285 284 283 283 283 282 282 282 280 281 280 280 281 280 280 281 282 281 282 283 283 283 284 284 285 285 290
285 285 285 284 283 283 282 281 281 280 282 282 284 285 284 284 284 282 282 281 281 280 280 280 280 279 279 280 278 278 278 279 279 280 281 280 280 282 282 283 283 283 285
285 285 284 284 283 283 283 282 281 281 281 281 283 282 283 283 283 282 280 280 280 279 278 279 278 278 278 279 276 276 272 275 278 279 279 279 279 281 282 282 282 283 284
284 283 283 283 284 283 283 283 282 281 280 279 280 280 281 281 281 280 280 278 278 278 277 277 276 276 275 276 277 275 271 270 273 276 277 278 278 279 279 280 282 282 283
283 282 283 284 284 283 282 280 278 277 276 278 278 279 279 280 279 279 278 278 277 277 276 276 277 275 274 273 275 277 276 275 271 270 275 276 277 277 278 279 280 281 282
282 281 282 282 281 281 280 279 277 276 276 277 277 276 277 277 277 277 277 276 275 275 274 274 274 274 275 274 273 273 273 273 273 271 269 272 275 276 277 277 278 279 281
281 280 279 279 279 279 278 277 276 275 275 275 275 274 274 275 275 275 275 274 273 273 273 272 272 272 272 272 272 272 272 270 271 271 269 271 272 273 275 276 276 277 278
Wind_Speed
7 10 15 15 16 17 17 16 15 13 13 13 12 12 12 11 11 11 12 12 13 13 12 12 12 13 13 13 13 13 13 13 13 13 13 12 11 11 7 3 4 4 5
4 7 11 14 15 16 16 16 16 16 16 14 13 12 11 11 11 12 12 12 12 12 12 13 13 13 13 14 13 13 14 14 15 16 16 13 13 14 10 4 3 4 5
3 6 7 14 15 15 15 14 13 13 12 12 12 11 11 11 11 12 12 12 12 12 12 13 12 13 13 14 14 14 13 14 15 16 17 7 9 14 6 5 6 6 7
3 5 7 12 14 13 13 13 12 12 11 10 10 10 10 11 11 12 12 12 13 13 13 13 14 13 14 14 14 15 15 15 15 16 8 8 9 15 12 9 10 11 9
4 4 6 12 12 11 11 11 11 11 11 11 11 12 11 11 11 12 12 12 13 14 14 15 15 14 14 14 15 16 16 16 15 10 7 7 6 12 16 16 9 11 12
4 3 7 10 10 10 11 11 11 11 11 11 11 12 11 11 10 11 12 12 13 14 14 14 15 15 16 16 16 16 16 17 16 7 6 9 9 16 18 16 13 14 13
4 4 6 11 8 10 10 11 10 10 10 10 10 13 13 11 11 11 14 13 15 14 15 15 16 16 16 16 16 17 17 17 9 6 6 7 9 19 17 16 17 15 15
6 5 6 9 12 11 8 9 9 8 8 10 13 14 14 15 14 14 15 14 15 15 16 15 16 15 15 17 17 18 17 16 8 6 7 7 14 18 17 18 17 15 15
6 6 5 6 8 11 7 11 6 8 7 11 12 13 14 15 15 16 16 16 17 17 17 18 18 19 19 20 20 20 19 19 9 5 7 5 15 19 20 20 18 16 16
6 6 6 6 6 5 4 11 10 11 11 11 12 13 13 14 15 16 16 16 17 17 17 17 17 19 20 20 20 20 21 20 7 7 6 5 21 21 22 22 22 20 19
5 5 5 5 5 6 4 6 8 9 10 11 10 13 9 5 7 9 15 17 18 18 18 18 19 20 21 19 21 20 20 5 7 7 6 17 22 23 23 22 22 22 21
4 2 4 5 6 6 5 6 6 5 4 4 5 6 4 5 6 9 12 17 18 18 19 20 21 20 15 7 6 13 6 7 6 6 6 21 24 25 24 24 24 24 23
4 3 3 4 4 4 3 3 2 2 3 3 5 4 4 4 3 3 3 4 4 12 6 9 9 7 10 7 8 8 8 7 6 6 10 22 24 25 26 26 26 25 25
5 4 4 5 4 4 3 3 3 3 3 3 3 3 3 3 4 4 3 4 4 5 7 8 6 8 9 9 9 10 10 7 6 7 9 22 24 26 26 28 28 27 27
6 5 3 3 4 4 4 3 3 3 3 3 3 4 3 3 4 4 4 4 4 4 6 8 8 9 10 11 10 10 9 11 11 7 6 19 25 26 27 28 29 29 29
6 5 4 4 3 4 3 4 3 3 3 4 4 4 3 2 3 3 4 4 4 3 6 7 7 9 9 9 10 12 13 11 11 11 9 10 21 24 26 27 27 28 29
5 6 4 5 3 3 2 3 3 3 4 3 4 5 5 5 4 4 4 4 4 4 7 7 8 8 8 9 11 11 11 12 11 11 10 9 13 23 24 26 26 27 30
7 6 4 3 4 3 3 3 4 4 3 4 4 4 6 5 5 5 4 4 5 4 6 5 7 8 8 9 10 10 10 10 12 14 12 10 10 9 14 23 26 26 27
8 7 5 5 3 3 3 4 3 5 4 4 4 4 6 6 7 5 5 6 8 6 7 7 8 6 9 9 10 10 10 10 12 10 13 13 12 10 7 13 22 19 17
6 5 5 5 3 2 2 2 2 2 3 4 5 4 6 6 7 7 7 8 6 8 7 7 8 9 8 9 10 11 10 9 9 11 12 8 8 10 9 12 7 9 23
5 5 6 6 3 2 2 1 2 2 3 3 3 4 7 5 9 10 7 9 8 7 9 10 10 11 9 9 9 10 9 13 10 9 8 6 10 11 12 11 6 8 9
5 5 5 5 3 2 1 1 1 2 2 3 3 6 6 8 9 10 9 8 10 9 11 10 11 10 10 8 9 10 14 9 10 6 11 12 12 10 10 12 13 11 8
4 3 5 4 4 5 5 3 3 2 2 2 6 6 7 10 9 10 10 10 10 9 8 9 10 13 12 11 10 11 13 13 12 9 10 9 10 10 11 11 11 12 11
2 5 5 5 6 6 7 5 5 3 5 4 6 6 7 7 9 11 10 11 10 8 10 9 10 12 13 13 10 10 12 14 15 16 9 9 8 9 11 9 10 11 11
6 6 6 7 7 6 7 6 4 5 3 4 6 9 8 9 9 10 10 11 10 9 11 13 13 12 10 11 11 11 13 13 14 14 16 10 9 7 5 9 11 9 12
6 6 6 6 6 6 5 5 6 6 8 8 8 8 7 8 7 10 11 10 12 11 11 12 14 14 13 13 12 12 10 10 10 12 14 17 9 9 7 7 9 11 12
Wind_Direction
349 346 18 35 47 50 48 50 49 49 51 49 45 41 33 24 19 17 17 14 7 3 1 360 1 1 360 359 357 356 354 351 349 345 337 328 314 299 277 291 323 331 323
309 341 26 43 48 47 43 39 36 35 33 33 28 30 24 17 14 12 11 8 2 359 356 354 355 355 353 352 352 351 349 348 346 343 339 339 326 310 262 266 285 287 309
355 0 23 47 50 47 44 42 38 35 32 27 24 19 14 9 6 4 3 2 355 352 349 347 348 348 347 345 343 343 343 343 342 340 344 335 328 326 267 276 280 290 294
31 17 32 49 46 45 40 37 34 30 26 24 19 14 8 5 3 1 1 358 354 351 349 345 345 344 343 339 337 337 337 337 338 337 340 330 327 324 302 278 297 298 292
66 31 37 44 41 39 36 31 25 20 16 15 12 9 4 2 1 359 359 356 356 350 345 344 342 339 338 335 332 331 330 330 332 345 329 323 313 316 307 299 278 293 298
102 53 40 37 34 32 29 25 20 19 16 14 14 8 3 1 360 2 359 355 355 349 345 343 340 338 336 333 330 327 326 326 328 332 317 313 315 307 301 297 292 291 288
108 60 35 38 29 25 23 20 17 13 11 12 13 9 3 359 352 0 358 355 347 348 346 343 339 335 334 332 329 327 326 325 325 315 305 302 301 304 294 295 290 286 286
108 73 49 35 29 17 15 18 26 25 21 24 25 14 15 11 16 8 4 353 350 350 348 342 341 341 337 331 331 327 331 328 320 300 302 299 303 305 296 293 289 282 286
92 79 55 36 24 13 20 8 25 8 28 43 28 24 25 26 23 16 13 5 1 355 352 351 353 348 344 343 341 338 332 328 325 298 302 296 305 306 302 300 289 276 280
82 68 54 40 25 10 25 29 50 46 58 47 38 35 33 25 20 15 13 2 360 353 352 348 349 345 341 339 332 331 328 326 327 307 291 290 305 301 297 295 286 282 284
65 59 60 43 26 6 31 27 36 53 53 47 38 33 28 17 5 12 5 3 360 353 352 348 346 344 340 335 331 328 326 310 310 307 299 297 300 297 294 290 286 281 278
137 100 76 51 27 14 19 15 22 36 34 48 36 34 23 25 9 14 5 4 360 355 352 347 342 340 336 319 312 323 306 304 303 296 297 303 302 296 291 289 286 282 279
143 69 65 66 53 30 18 7 15 17 23 27 30 27 31 23 5 358 352 351 344 350 342 340 333 331 323 317 316 311 309 304 300 299 302 304 302 299 294 287 283 281 278
155 132 72 49 35 22 13 11 357 12 11 5 356 15 34 12 3 353 347 339 341 338 334 333 323 316 316 306 306 305 305 304 309 303 300 302 301 298 294 288 286 279 276
144 134 125 76 40 20 23 0 0 351 354 332 345 360 23 7 352 335 335 331 328 324 332 326 321 321 317 313 309 306 308 306 300 296 294 301 301 298 295 292 290 286 281
142 147 138 111 71 38 19 357 341 318 327 359 345 338 335 331 325 324 319 315 313 315 318 311 307 314 312 310 309 312 307 303 299 298 297 294 295 302 300 296 294 289 285
166 156 144 137 102 62 10 353 354 7 5 1 335 323 315 310 310 317 312 309 300 304 307 307 314 309 311 309 306 305 302 303 297 299 301 305 294 293 297 297 294 289 286
147 160 141 121 102 66 41 20 9 8 2 330 335 331 320 326 336 313 302 298 288 289 303 286 302 303 305 305 304 303 299 298 306 301 294 293 292 296 298 301 295 293 294
163 156 157 116 123 65 42 35 357 3 347 337 327 326 339 352 331 329 320 313 311 305 307 287 298 288 298 298 297 301 302 299 296 293 293 294 301 295 303 326 319 317 316
160 153 134 133 131 87 63 4 350 343 334 331 336 341 350 338 343 335 323 313 311 306 305 302 292 298 289 293 296 298 293 294 294 290 289 298 301 314 309 315 308 318 315
170 164 160 147 130 94 40 342 316 316 304 331 308 343 331 334 341 331 329 323 320 322 316 306 307 305 301 298 295 292 291 294 287 288 302 312 310 306 309 296 316 313 302
179 190 149 132 115 68 79 352 335 312 314 307 351 329 332 338 334 335 326 328 326 321 321 319 318 313 304 308 304 301 302 291 275 316 313 311 300 302 292 307 302 293 315
198 170 128 112 70 47 29 3 356 322 341 330 337 335 340 334 332 332 329 328 323 321 317 325 321 311 311 305 295 298 304 294 303 287 279 278 291 291 293 294 293 293 291
167 96 94 67 51 46 30 34 29 5 341 329 331 326 326 330 333 325 322 322 320 325 322 321 324 315 308 300 299 293 290 297 299 300 282 281 273 287 290 292 311 302 302
78 58 49 65 51 38 36 33 22 2 324 327 333 332 335 331 323 319 335 339 336 334 319 312 315 320 315 308 307 306 297 293 290 292 294 279 274 272 297 298 292 291 297
59 71 58 59 45 38 35 27 21 358 344 339 338 333 330 325 327 339 336 336 327 323 330 325 318 314 314 308 304 305 303 306 303 301 296 293 277 280 277 285 288 282 280